EW7738 Weather Reports


Display with metric or nautical units.
time (UTC)temp
F
wind
direction
speed
MPH
gust
MPH
rain 1hr
in
rain 24hr
in
rain mn
in
humidity
%
barometer
mb
20210410150029 55 139 0.0 0.0 0.00 0.01 0.01 93 1015.9
20210410145000 55 144 0.0 0.0 0.00 0.01 0.01 93 1015.9
20210410144304 55 98 0.0 0.0 0.00 0.01 0.01 94 1015.9
20210410143806 54 138 0.0 0.0 0.00 0.01 0.01 94 1015.9
20210410143303 54 89 0.0 0.0 0.00 0.01 0.01 94 1016.0
20210410142921 54 80 0.0 0.0 0.00 0.01 0.01 94 1015.9
20210410142756 54 95 0.0 0.0 0.00 0.01 0.01 94 1016.0
20210410141904 54 88 0.0 0.0 0.00 0.01 0.01 94 1016.0
20210410141304 54 119 0.0 0.0 0.00 0.01 0.01 94 1015.9
20210410140817 53 83 0.0 0.0 0.00 0.01 0.01 94 1015.8
20210410140427 53 67 0.0 0.0 0.00 0.01 0.01 94 1015.8
20210410140151 53 79 0.0 0.0 0.00 0.01 0.01 94 1015.8
20210410135914 53 64 0.0 0.0 0.00 0.01 0.01 94 1015.8
20210410135042 53 105 0.0 0.0 0.00 0.01 0.01 94 1015.9
20210410134317 53 46 0.0 0.0 0.00 0.01 0.01 94 1015.9
20210410133813 53 83 0.0 0.0 0.00 0.01 0.01 95 1016.0
20210410133304 53 43 0.0 0.0 0.00 0.01 0.01 95 1016.0
20210410132821 53 57 0.0 0.0 0.00 0.01 0.01 95 1016.1
20210410131835 53 67 0.0 0.0 0.00 0.01 0.01 95 1016.2
20210410131309 53 34 0.0 0.0 0.00 0.01 0.01 95 1016.3
20210410130806 53 34 0.0 0.0 0.00 0.01 0.01 95 1016.4
20210410130312 52 34 0.0 0.0 0.00 0.01 0.01 95 1016.5
20210410125059 52 32 0.0 0.0 0.00 0.01 0.01 95 1016.9
20210410124316 52 32 0.0 0.0 0.00 0.01 0.01 95 1016.9
20210410123823 52 32 0.0 0.0 0.00 0.01 0.01 95 1016.9
20210410123453 52 30 0.0 0.0 0.00 0.01 0.01 95 1017.0
20210410122756 52 61 0.0 0.0 0.00 0.01 0.01 95 1016.9
20210410121822 52 61 0.0 0.0 0.00 0.01 0.01 95 1016.9
20210410121304 52 61 0.0 0.0 0.00 0.01 0.01 95 1017.0
20210410120810 52 61 0.0 0.0 0.00 0.01 0.01 95 1017.0
20210410120310 52 61 0.0 0.0 0.00 0.01 0.01 95 1016.9
20210410120113 52 61 0.0 0.0 0.00 0.01 0.01 95 1017.1
20210410115821 52 61 0.0 0.0 0.00 0.01 0.01 95 1017.1
20210410114907 52 61 0.0 0.0 0.00 0.01 0.01 95 1017.0
20210410114304 51 61 0.0 0.0 0.00 0.01 0.01 95 1016.9
20210410113813 51 61 0.0 0.0 0.00 0.01 0.01 94 1016.8
20210410113316 51 61 0.0 0.0 0.00 0.01 0.01 94 1016.8
20210410112846 51 61 0.0 0.0 0.00 0.01 0.01 94 1016.8
20210410112730 51 61 0.0 0.0 0.00 0.01 0.01 94 1016.9
20210410111926 51 61 0.0 0.0 0.00 0.01 0.01 94 1016.9
20210410111307 51 61 0.0 0.0 0.00 0.01 0.01 94 1016.7
20210410110814 51 61 0.0 0.0 0.00 0.01 0.01 94 1016.8
20210410110304 51 61 0.0 0.0 0.00 0.01 0.01 94 1016.8
20210410105920 51 61 0.0 0.0 0.00 0.01 0.01 94 1016.7
20210410105744 51 61 0.0 0.0 0.00 0.01 0.01 94 1016.6
20210410104855 51 61 0.0 0.0 0.00 0.01 0.01 94 1016.5
20210410104307 51 51 0.0 0.0 0.00 0.01 0.01 94 1016.4
20210410103820 51 86 0.0 0.0 0.00 0.01 0.01 94 1016.4
20210410103304 51 45 0.0 0.0 0.00 0.02 0.01 94 1016.3
20210410102908 51 50 0.0 0.0 0.00 0.02 0.01 94 1016.3
20210410102750 51 53 0.0 0.0 0.00 0.02 0.01 94 1016.4
20210410101905 51 74 0.0 0.0 0.00 0.02 0.01 94 1016.4
20210410101305 51 136 0.0 0.0 0.00 0.02 0.01 94 1016.4
20210410100809 51 152 0.0 0.0 0.00 0.02 0.01 94 1016.6
20210410100305 51 128 0.0 0.0 0.00 0.02 0.01 94 1016.7
20210410095959 51 140 0.0 0.0 0.00 0.02 0.01 94 1016.8
20210410095835 51 123 0.0 1.0 0.00 0.02 0.01 94 1016.7
20210410094958 51 133 0.0 0.0 0.00 0.02 0.01 94 1016.9
20210410094304 51 132 0.0 0.0 0.00 0.02 0.01 94 1016.9
20210410093804 51 112 0.0 0.0 0.00 0.02 0.01 94 1016.8
20210410093307 51 132 0.0 0.0 0.00 0.02 0.01 94 1016.7
20210410092808 51 150 0.0 0.0 0.00 0.02 0.01 94 1016.8
20210410092534 51 121 0.0 0.0 0.01 0.02 0.01 94 1016.4
20210410091902 51 103 0.0 0.0 0.01 0.02 0.01 94 1016.3
20210410091304 51 98 0.0 0.0 0.01 0.02 0.01 94 1016.5
20210410090814 51 97 0.0 0.0 0.01 0.02 0.01 94 1016.7
20210410090306 51 97 0.0 0.0 0.01 0.02 0.01 94 1016.8
20210410085855 51 97 0.0 0.0 0.01 0.02 0.01 94 1017.0
20210410085649 51 164 0.0 0.0 0.01 0.02 0.01 94 1017.0
20210410084835 51 164 0.0 0.0 0.01 0.02 0.01 94 1016.8
20210410084304 51 138 0.0 0.0 0.01 0.02 0.01 94 1016.6
20210410083809 51 133 0.0 0.0 0.01 0.02 0.01 94 1016.5
20210410083306 51 136 0.0 0.0 0.01 0.02 0.01 94 1016.5
20210410082806 51 148 0.0 0.0 0.01 0.02 0.01 94 1016.4
20210410082436 51 127 0.0 0.0 0.00 0.01 0.00 94 1016.3
20210410081830 51 115 0.0 0.0 0.00 0.01 0.00 94 1016.3
20210410081303 51 113 0.0 0.0 0.00 0.01 0.00 93 1016.4
20210410080817 51 117 0.0 0.0 0.00 0.01 0.00 93 1016.7
20210410080316 51 129 0.0 0.0 0.00 0.01 0.00 93 1016.9
20210410080018 51 135 0.0 0.0 0.00 0.01 0.00 93 1017.1
20210410075825 51 129 0.0 0.0 0.00 0.01 0.00 93 1017.4
20210410074858 51 119 0.0 0.0 0.00 0.01 0.00 93 1017.5
20210410074305 51 124 0.0 0.0 0.00 0.01 0.00 93 1017.8
20210410073814 51 153 0.0 0.0 0.00 0.01 0.00 93 1018.0
20210410073304 51 120 0.0 0.0 0.00 0.01 0.00 93 1017.9
20210410072805 51 140 0.0 0.0 0.00 0.01 0.00 93 1017.9
20210410072446 51 123 0.0 0.0 0.00 0.01 0.00 93 1018.0
20210410071838 51 124 0.0 0.0 0.00 0.01 0.00 93 1018.1
20210410071310 51 132 0.0 0.0 0.00 0.01 0.00 93 1018.0
20210410070810 51 135 0.0 0.0 0.00 0.01 0.00 93 1018.0
20210410070309 51 150 0.0 0.0 0.00 0.01 0.00 93 1017.9
20210410065930 51 133 0.0 0.0 0.00 0.01 0.00 93 1017.8
20210410065756 51 152 0.0 0.0 0.00 0.01 0.00 93 1017.8
20210410064842 51 132 0.0 0.0 0.00 0.01 0.00 93 1017.8
20210410064310 51 108 0.0 0.0 0.00 0.01 0.00 93 1017.8
20210410063809 51 95 0.0 0.0 0.00 0.01 0.00 93 1017.9
20210410063529 51 110 0.0 0.0 0.00 0.01 0.00 93 1017.9
20210410063153 51 83 0.0 0.0 0.00 0.01 0.00 93 1018.0
20210410062847 51 81 0.0 0.0 0.00 0.01 0.00 93 1017.9
20210410061844 51 104 0.0 0.0 0.00 0.01 0.00 93 1017.8
20210410061308 51 117 0.0 0.0 0.00 0.01 0.00 92 1017.9
20210410060819 51 96 0.0 0.0 0.00 0.01 0.00 92 1017.9
20210410060348 51 107 0.0 0.0 0.00 0.01 0.00 92 1018.0
20210410060102 51 108 0.0 0.0 0.00 0.01 0.00 93 1018.0
20210410055843 51 107 0.0 0.0 0.00 0.01 0.00 92 1018.1
20210410054940 51 98 0.0 0.0 0.00 0.01 0.00 92 1018.0
20210410054304 51 98 0.0 0.0 0.00 0.01 0.00 92 1018.2
20210410053808 51 79 0.0 0.0 0.00 0.01 0.00 92 1018.3
20210410053305 51 79 0.0 0.0 0.00 0.01 0.00 92 1018.4
20210410052952 51 99 0.0 0.0 0.00 0.01 0.00 92 1018.4
20210410052755 51 116 0.0 0.0 0.00 0.01 0.00 92 1018.4
20210410051844 51 116 0.0 0.0 0.00 0.01 0.00 92 1018.5
20210410051304 51 165 0.0 0.0 0.00 0.01 0.00 92 1018.6
20210410050808 51 165 0.0 0.0 0.00 0.01 0.00 92 1018.6
20210410050321 51 165 0.0 0.0 0.00 0.01 0.00 92 1018.7
20210410050038 51 165 0.0 0.0 0.00 0.01 0.00 92 1018.7
20210410045836 51 165 0.0 0.0 0.00 0.01 0.00 92 1018.7
20210410044840 51 165 0.0 0.0 0.00 0.01 0.00 91 1018.8
20210410044304 51 165 0.0 0.0 0.00 0.01 0.00 91 1018.9
20210410043810 51 165 0.0 0.0 0.00 0.01 0.00 91 1018.8
20210410043304 51 165 0.0 0.0 0.00 0.01 0.00 91 1018.8
20210410042837 51 165 0.0 0.0 0.00 0.01 0.00 91 1019.0
20210410042644 51 165 0.0 0.0 0.00 0.01 0.00 91 1019.0
20210410041818 51 136 0.0 0.0 0.00 0.01 0.00 91 1019.1
20210410041307 51 136 0.0 0.0 0.00 0.01 0.00 91 1019.0
20210410040822 51 136 0.0 0.0 0.00 0.01 0.00 91 1019.0
20210410040303 51 136 0.0 0.0 0.00 0.01 0.00 91 1018.9
20210410040036 51 136 0.0 0.0 0.00 0.01 0.01 91 1018.8
20210410035837 52 136 0.0 0.0 0.00 0.01 0.01 90 1018.8
20210410034844 52 136 0.0 0.0 0.00 0.01 0.01 91 1018.8
20210410034304 52 136 0.0 0.0 0.00 0.01 0.01 90 1018.8
20210410033808 52 136 0.0 0.0 0.00 0.01 0.01 90 1018.8
20210410033307 52 137 0.0 0.0 0.00 0.01 0.01 90 1018.8
20210410033016 52 151 0.0 0.0 0.00 0.01 0.01 90 1018.8
20210410032834 52 140 0.0 0.0 0.00 0.01 0.01 90 1018.8
20210410031913 52 140 0.0 0.0 0.00 0.01 0.01 90 1018.8
20210410031318 52 149 0.0 0.0 0.00 0.01 0.01 90 1018.8
20210410030957 52 146 0.0 0.0 0.00 0.01 0.01 90 1018.9
20210410030626 52 148 0.0 0.0 0.00 0.01 0.01 89 1019.0
20210410030128 52 139 0.0 0.0 0.00 0.01 0.01 89 1019.1
20210410025923 52 144 0.0 0.0 0.00 0.01 0.01 89 1019.0
20210410024941 52 119 0.0 0.0 0.00 0.01 0.01 89 1019.0
20210410024308 52 135 0.0 0.0 0.00 0.01 0.01 89 1019.0
20210410023813 52 124 0.0 0.0 0.00 0.01 0.01 89 1019.0
20210410023307 52 121 0.0 0.0 0.00 0.01 0.01 89 1019.0
20210410022907 52 139 0.0 0.0 0.00 0.01 0.01 89 1019.0
20210410022638 52 143 0.0 0.0 0.00 0.01 0.01 89 1019.0
20210410021845 52 149 0.0 0.0 0.00 0.01 0.01 89 1019.1
20210410021308 52 112 0.0 0.0 0.00 0.01 0.01 88 1019.0
20210410020809 52 137 0.0 0.0 0.00 0.01 0.01 88 1018.9
20210410020304 52 135 0.0 0.0 0.00 0.01 0.01 88 1018.9
20210410015924 52 128 0.0 0.0 0.00 0.01 0.01 88 1018.9
20210410015727 52 125 0.0 0.0 0.00 0.01 0.01 88 1019.0
20210410014841 52 128 0.0 0.0 0.00 0.01 0.01 87 1019.0
20210410014304 52 143 0.0 0.0 0.00 0.01 0.01 87 1019.0
20210410013803 52 124 0.0 0.0 0.00 0.01 0.01 87 1019.1
20210410013305 52 148 0.0 0.0 0.00 0.01 0.01 87 1019.0
20210410012928 52 128 0.0 0.0 0.00 0.01 0.01 87 1018.9
20210410012634 52 110 0.0 0.0 0.00 0.01 0.01 86 1019.0
20210410011849 52 122 0.0 0.0 0.00 0.01 0.01 86 1019.1
20210410011305 53 103 0.0 0.0 0.00 0.01 0.01 86 1019.1
20210410010812 52 113 0.0 0.0 0.00 0.01 0.01 86 1019.0
20210410010317 53 115 0.0 0.0 0.00 0.01 0.01 86 1019.1
20210410005824 53 124 0.0 0.0 0.00 0.01 0.01 86 1019.1
20210410004922 53 125 0.0 2.0 0.00 0.01 0.01 86 1019.1
20210410004304 53 117 0.0 0.0 0.00 0.01 0.01 86 1019.0
20210410003808 53 143 0.0 0.0 0.00 0.01 0.01 86 1019.1
20210410003304 53 127 0.0 0.0 0.00 0.01 0.01 86 1019.1
20210410002721 53 127 0.0 0.0 0.00 0.01 0.01 86 1019.0
20210410001913 53 131 0.0 0.0 0.00 0.01 0.01 86 1018.9
20210410001305 53 105 0.0 0.0 0.00 0.01 0.01 86 1018.8
20210410000823 53 108 0.0 0.0 0.00 0.01 0.01 86 1019.0
20210410000336 53 121 0.0 0.0 0.00 0.01 0.01 86 1018.9
20210409235857 53 132 0.0 0.0 0.00 0.01 0.01 86 1019.0
20210409234948 53 123 0.0 0.0 0.00 0.01 0.01 86 1019.1
20210409234305 53 133 0.0 0.0 0.00 0.01 0.01 86 1019.2
20210409233804 53 141 0.0 0.0 0.00 0.01 0.01 86 1019.2
20210409233304 53 142 0.0 0.0 0.00 0.01 0.01 86 1019.2
20210409232858 53 150 0.0 0.0 0.00 0.01 0.01 86 1019.2
20210409232714 53 149 0.0 0.0 0.00 0.01 0.01 86 1019.1
20210409231828 53 136 0.0 0.0 0.00 0.01 0.01 85 1019.0
20210409231304 53 139 0.0 0.0 0.00 0.01 0.01 86 1019.0
20210409230806 53 139 0.0 2.0 0.00 0.01 0.01 86 1019.0
20210409230557 53 146 0.0 0.0 0.00 0.01 0.01 86 1018.9
20210409230225 53 116 0.0 0.0 0.00 0.01 0.01 85 1018.9
20210409225931 54 117 0.0 0.0 0.00 0.01 0.01 85 1018.9
20210409224825 54 98 0.0 0.0 0.00 0.01 0.01 85 1018.9
20210409224309 54 110 0.0 0.0 0.00 0.01 0.01 85 1018.8
20210409223820 54 115 0.0 0.0 0.00 0.01 0.01 86 1018.8
20210409223307 54 121 0.0 0.0 0.00 0.01 0.01 85 1018.8
20210409222809 54 126 0.0 1.0 0.00 0.01 0.01 85 1018.6
20210409222520 54 113 0.0 0.0 0.00 0.01 0.01 85 1018.4
20210409221823 54 106 0.0 0.0 0.00 0.01 0.01 85 1018.5
20210409221307 54 115 0.0 0.0 0.00 0.01 0.01 84 1018.7
20210409220806 55 113 0.0 0.0 0.00 0.01 0.01 84 1018.7
20210409220310 55 142 0.0 0.0 0.00 0.01 0.01 84 1018.7
20210409215840 55 139 0.0 0.0 0.00 0.01 0.01 84 1018.7
20210409215731 55 104 0.0 0.0 0.00 0.01 0.01 84 1018.5
20210409214906 55 119 0.0 0.0 0.00 0.01 0.01 84 1018.7
20210409214337 54 126 0.0 0.0 0.00 0.01 0.01 84 1019.0
20210409213808 54 141 0.0 0.0 0.00 0.01 0.01 84 1019.2
20210409213307 54 139 0.0 0.0 0.00 0.01 0.01 84 1019.2
20210409212855 54 146 0.0 0.0 0.00 0.01 0.01 84 1019.2
20210409212631 55 138 0.0 0.0 0.00 0.01 0.01 84 1019.0
20210409211818 55 141 0.0 0.0 0.00 0.01 0.01 84 1019.2
20210409211305 55 143 0.0 0.0 0.00 0.01 0.01 84 1019.0
20210409210819 55 138 0.0 0.0 0.00 0.01 0.01 84 1019.0
20210409210305 55 153 0.0 0.0 0.00 0.01 0.01 84 1019.0
20210409205917 55 126 0.0 0.0 0.00 0.01 0.01 84 1018.8
20210409205731 55 104 0.0 0.0 0.00 0.01 0.01 85 1018.8
20210409204949 54 138 0.0 0.0 0.00 0.01 0.01 85 1018.9
20210409204304 54 165 0.0 0.0 0.00 0.01 0.01 85 1019.0
20210409203807 54 162 0.0 0.0 0.00 0.01 0.01 85 1019.0
20210409203307 54 144 0.0 0.0 0.00 0.01 0.01 85 1019.0
20210409202841 54 157 0.0 0.0 0.00 0.01 0.01 84 1019.0
20210409202610 54 135 0.0 0.0 0.00 0.01 0.01 85 1018.9
20210409201854 54 147 0.0 0.0 0.00 0.01 0.01 84 1018.9
20210409201306 54 141 0.0 0.0 0.00 0.01 0.01 85 1018.9
20210409200813 54 162 0.0 0.0 0.00 0.01 0.01 85 1019.0
20210409200327 54 144 0.0 0.0 0.00 0.01 0.01 84 1019.0
20210409200041 54 150 0.0 0.0 0.00 0.01 0.01 85 1019.1
20210409195825 54 144 0.0 0.0 0.00 0.01 0.01 84 1018.9
20210409194946 54 159 0.0 0.0 0.00 0.01 0.01 85 1019.0
20210409194306 54 138 0.0 0.0 0.00 0.01 0.01 85 1019.0
20210409193809 54 127 0.0 0.0 0.00 0.01 0.01 85 1019.1
20210409193304 54 128 0.0 0.0 0.00 0.01 0.01 85 1019.0
20210409192911 54 149 0.0 0.0 0.00 0.01 0.01 85 1018.9
20210409192657 54 137 0.0 0.0 0.00 0.01 0.01 85 1019.0
20210409191829 54 150 0.0 0.0 0.00 0.01 0.01 85 1019.1
20210409191304 54 151 0.0 0.0 0.00 0.01 0.01 84 1019.2
20210409190811 54 132 0.0 0.0 0.00 0.01 0.01 84 1019.2
20210409190315 54 133 0.0 0.0 0.00 0.01 0.01 84 1019.2
20210409190051 54 162 0.0 1.0 0.00 0.01 0.01 84 1019.3
20210409185843 55 175 0.0 2.0 0.00 0.01 0.01 84 1019.4
20210409184936 55 158 0.0 0.0 0.00 0.01 0.01 83 1019.4
20210409184308 55 142 0.0 0.0 0.00 0.01 0.01 83 1019.4
20210409183817 54 147 0.0 0.0 0.00 0.01 0.01 83 1019.4
20210409183321 55 146 0.0 0.0 0.00 0.01 0.01 82 1019.4
20210409182948 55 109 0.0 0.0 0.00 0.01 0.01 82 1019.5
20210409182751 55 147 0.0 0.0 0.00 0.01 0.01 82 1019.5
20210409181900 55 164 0.0 0.0 0.00 0.01 0.01 81 1019.5
20210409181304 55 126 0.0 0.0 0.00 0.01 0.01 81 1019.5
20210409180808 55 115 0.0 0.0 0.00 0.01 0.01 81 1019.5
20210409180454 55 145 0.0 0.0 0.00 0.01 0.01 82 1019.5
20210409180202 55 129 0.0 0.0 0.00 0.01 0.01 81 1019.4
20210409175918 55 141 0.0 0.0 0.00 0.01 0.01 81 1019.5
20210409175021 55 104 0.0 0.0 0.00 0.01 0.01 82 1019.3
20210409174307 55 126 0.0 0.0 0.00 0.01 0.01 82 1019.3
20210409173806 55 144 0.0 0.0 0.00 0.01 0.01 83 1019.4
20210409173310 54 138 0.0 0.0 0.00 0.01 0.01 82 1019.5
20210409172912 54 144 0.0 0.0 0.00 0.01 0.01 82 1019.6
20210409172725 54 154 0.0 0.0 0.00 0.01 0.01 81 1019.6
20210409171840 54 151 0.0 0.0 0.00 0.01 0.01 81 1019.6
20210409171304 54 127 0.0 0.0 0.00 0.01 0.01 81 1019.6
20210409170805 54 152 0.0 0.0 0.00 0.01 0.01 81 1019.5
20210409170305 54 141 0.0 0.0 0.00 0.01 0.01 82 1019.5
20210409170035 54 125 0.0 0.0 0.00 0.01 0.01 82 1019.5
20210409165834 54 145 0.0 0.0 0.00 0.01 0.01 83 1019.5
20210409165044 53 144 0.0 1.0 0.00 0.01 0.01 82 1019.6
20210409164303 53 145 0.0 0.0 0.00 0.01 0.01 83 1019.6
20210409163822 53 136 0.0 0.0 0.00 0.01 0.01 82 1019.7
20210409163310 54 112 0.0 0.0 0.00 0.01 0.01 83 1019.7
20210409162807 53 160 0.0 0.0 0.00 0.01 0.01 83 1019.7
20210409162412 53 127 0.0 0.0 0.00 0.01 0.01 83 1019.7
20210409161826 53 146 0.0 0.0 0.00 0.01 0.01 82 1019.7
20210409161306 53 140 0.0 0.0 0.00 0.01 0.01 83 1019.8
20210409160806 53 152 0.0 1.0 0.00 0.01 0.01 83 1019.9
20210409160427 53 118 0.0 0.0 0.00 0.01 0.01 84 1019.9
20210409155809 53 112 0.0 0.0 0.00 0.01 0.01 83 1019.9
20210409155312 53 118 0.0 0.0 0.00 0.01 0.01 84 1019.8
20210409150130 52 130 0.0 0.0 0.00 0.01 0.01 86 1020.2